Regional Weather Roundup
Issued by NWS Jackson, KY

Home | Current Version | Previous Version | Text Only | Print | Product List | Glossary Off
Versions: 1 2 3 4 5 6 7 8 9 10 11 12 13 14 15 16 17 18 19 20 21 22 23 24 25 26 27

000
ASUS43 KJKL 152210
RWRJKL

EAST KENTUCKY HOURLY WEATHER ROUNDUP
NATIONAL WEATHER SERVICE JACKSON KY
500 PM EST SUN JAN 15 2017

NOTE: "FAIR" INDICATES FEW OR NO CLOUDS BELOW 12,000 FEET WITH
NO SIGNIFICANT WEATHER AND/OR OBSTRUCTIONS TO VISIBILITY.

* THESE REPORTS ARE NOT UNDER NWS QUALITY CONTROL AND MAY NOT
  REPORT WEATHER SUCH AS PRECIPITATION AND FOG.

KYZ079-080-083-085-087-088-110-112-115-119-120-152300
...EASTERN KENTUCKY...

CITY           SKY/WX    TMP DP  RH WIND       PRES   REMARKS
JACKSON        LGT RAIN  40  38  93 CALM      30.30R VSB<1/4
LONDON         LGT RAIN  46  43  89 CALM      30.28S FOG
SOMERSET*      CLOUDY    45  45 100 E3        30.29S
MONTICELLO*    CLOUDY    47  46  97 N13       30.29R
WILLIAMSBURG*  CLOUDY    48  48 100 CALM      30.27F
MIDDLESBORO*   CLOUDY    56  52  86 CALM      30.27S
HARLAN APT*    CLOUDY    54  50  87 CALM      30.27R
PIKE CO APT*   FOG       40  40 100 N6        30.29S VSB<1/4
BIG SANDY APT* RAIN      40  40 100 CALM      30.31S
MOREHEAD APT*  CLOUDY    39  37  93 NE5       30.33S
ASHLAND*       CLOUDY    39  37  93 SE5       30.33S
$$

KYZ035-036-041-042-044-050-067-078-099-152300
...CENTRAL KENTUCKY...

CITY           SKY/WX    TMP DP  RH WIND       PRES   REMARKS
MT STERLING*   HVY RAIN  37  37 100 E5        30.32S WCI  34
FLEMING/MASON* LGT RAIN  37  37  97 E5        30.34S WCI  34
DANVILLE*      DRIZZLE   39  39 100 CALM      30.31R
LEXINGTON      LGT RAIN  40  38  93 NE6       30.31R FOG
FRANKFORT      LGT RAIN  40  36  86 NE5       30.31S FOG
LOUISVILLE     LGT RAIN  41  38  89 E3        30.31S FOG
LEBANON*       MOCLDY    41  41 100 CALM      30.30S FOG
GLASGOW*       CLOUDY    45  45 100 NE3       30.28S
BOWLING GREEN  CLOUDY    47  44  90 NE3       30.29R
$$

KYZ091>093-OHZ055-061-077-WVZ005-015-034-035-042-152300
...SOUTHERN OHIO/WEST VIRGINIA...

CITY           SKY/WX    TMP DP  RH WIND       PRES   REMARKS
COVINGTON      LGT RAIN  37  36  96 E7        30.31F FOG     WCI  32
COLUMBUS       CLOUDY    37  29  72 E3        30.35F
DAYTON         CLOUDY    33  29  85 E3        30.35R
WILMINGTON     CLOUDY    34  33  96 E3        30.33F FOG
HUNTINGTON     LGT RAIN  39  36  89 CALM      30.34R FOG
CHARLESTON     LGT RAIN  42  37  82 CALM      30.33R
BECKLEY        LGT RAIN  42  41  96 CALM      30.28R FOG
BLUEFIELD      LGT RAIN  48  47  96 CALM      30.27S
LOGAN CO APT*  FOG       41  41 100 CALM      30.29S VSB<1/4
$$

VAZ002-007-008-TNZ017-027-036-066-071-152300
...SOUTHWEST VIRGINIA/EAST TENNESSEE...

CITY           SKY/WX    TMP DP  RH WIND       PRES   REMARKS
WISE*          CLOUDY    52  52 100 CALM      30.28R
JONESVILLE*    CLOUDY    55  54  94 CALM      30.29S
ABINGDON*      CLOUDY    57  55  92 W6        30.27R
BRISTOL        CLOUDY    58  55  90 CALM      30.26S
MORRISTOWN*    CLOUDY    59  57  94 CALM      30.25S
SEVIERVILLE*   CLOUDY    61  55  82 E3        30.25R
KNOXVILLE      CLOUDY    65  56  72 CALM      30.24R
LAFOLLETTE*    CLOUDY    59  54  82 CALM      30.28S
OAK RIDGE      CLOUDY    63  55  75 CALM      30.25S
CROSSVILLE     MOCLDY    62  54  74 W5        30.26S
NASHVILLE      MOCLDY    57  49  74 N8        30.26S
$$

...KEY TO REMARKS...
VSB - VISIBILITY IN MILES
WCI - WIND CHILL INDEX
HX  - HEAT INDEX

$$




USA.gov is the U.S. government's official web portal to all federal, state and local government web resources and services.